• Join FlightAware (Why Join?)
  • Login
  • US Flag 
05:38AM EST


 

Airport Tracker/Info


-or-


 

Live Flight TrackerFlight Track Log ✈ OPT732 ✈ 28-May-2012 ✈ KTEX - KSFO

Flight Track Log - Related Links

Times and Time Zones

All times are in EDT time to prevent confusion due to time zone crossing. See the OPT732 flight status page for this flight to view local times or setup timezone preferences in your user account.

Time Position Orientation Groundspeed Altitude Reporting Facility
EDT Latitude Longitude Course Direction KTS MPH feet Rate Location/Type
06:29PM 37.9359 -108.5161 83° East  Level FlightAware Approximate
06:30PM 37.9465 -108.6595 86° East  Level FlightAware Approximate
06:30PM 37.9808 -108.0178 278° West 230 265 13,100  Level Denver Center
06:35PM 38.0431 -108.5786 274° West 355 409 23,400 2,066 Climbing Salt Lake Center
06:36PM 38.0514 -108.7233 275° West 362 417 25,600 1,984 Climbing Salt Lake Center
06:37PM 38.0594 -108.8517 274° West 368 423 27,500 1,887 Climbing Salt Lake Center
06:38PM 38.0669 -108.9806 274° West 374 430 29,500 2,032 Climbing Salt Lake Center
06:39PM 38.0753 -109.1350 274° West 387 445 31,700 1,984 Climbing Salt Lake Center
06:40PM 38.0833 -109.2697 274° West 394 453 33,600 1,500 Climbing Salt Lake Center
06:41PM 38.0914 -109.4306 273° West 403 464 34,800 968 Climbing Salt Lake Center
06:42PM 38.0981 -109.5775 274° West 424 488 35,600 1,171 Climbing Salt Lake Center
06:43PM 38.1072 -109.7489 275° West 433 498 37,200 1,366 Climbing Salt Lake Center
06:44PM 38.1169 -109.8942 273° West 432 497 38,400 1,065 Climbing Salt Lake Center
06:45PM 38.1236 -110.0369 273° West 428 493 39,400 774 Climbing Salt Lake Center
06:46PM 38.1306 -110.2044 273° West 425 489 40,000 293 Climbing Salt Lake Center
06:47PM 38.1375 -110.3528 273° West 434 499 40,000  Level Salt Lake Center
06:48PM 38.1456 -110.5289 274° West 444 511 40,000  Level Salt Lake Center
06:50PM 38.1528 -110.6806 273° West 448 516 40,000  Level Salt Lake Center
06:51PM 38.1594 -110.8575 273° West 448 516 40,000  Level Salt Lake Center
06:52PM 38.1667 -111.0192 273° West 450 518 40,000  Level Salt Lake Center
06:53PM 38.1728 -111.1819 273° West 453 521 40,000  Level Salt Lake Center
06:54PM 38.1786 -111.3469 273° West 459 528 40,000  Level Salt Lake Center
06:55PM 38.1853 -111.5128 272° West 462 532 40,000  Level Salt Lake Center
06:56PM 38.1908 -111.6783 272° West 462 532 40,000  Level Salt Lake Center
06:57PM 38.1964 -111.8436 273° West 462 532 40,000  Level Salt Lake Center
06:58PM 38.2019 -112.0083 273° West 462 532 40,000  Level Salt Lake Center
06:59PM 38.2075 -112.1728 272° West 461 531 40,000  Level Salt Lake Center
07:00PM 38.2114 -112.3375 272° West 462 532 40,000  Level Salt Lake Center
07:01PM 38.2164 -112.5028 272° West 462 532 40,000  Level Salt Lake Center
07:02PM 38.2208 -112.6669 272° West 462 532 40,000 49 Level Salt Lake Center
07:03PM 38.2253 -112.8647 270° West 463 533 40,100 293 Climbing Salt Lake Center
07:04PM 38.2247 -113.0278 268° West 460 529 40,600 484 Climbing Salt Lake Center
07:05PM 38.2192 -113.1894 268° West 457 526 41,100 484 Climbing Salt Lake Center
07:06PM 38.2144 -113.3503 268° West 453 521 41,600 484 Climbing Salt Lake Center
07:07PM 38.2094 -113.5117 268° West 452 520 42,100 484 Climbing Salt Lake Center
07:08PM 38.2056 -113.6717 268° West 450 518 42,600 439 Climbing Salt Lake Center
07:09PM 38.2003 -113.8319 268° West 448 516 43,000 195 Climbing Salt Lake Center
07:10PM 38.1950 -113.9939 267° West 451 519 43,000  Level Salt Lake Center
07:11PM 38.1892 -114.1594 267° West 457 526 43,000  Level Salt Lake Center
07:12PM 38.1825 -114.3258 267° West 463 533 43,000  Level Salt Lake Center
07:13PM 38.1761 -114.4886 267° West 459 528 43,000  Level Salt Lake Center
07:14PM 38.1700 -114.6481 267° West 451 519 43,000  Level Salt Lake Center
07:15PM 38.1617 -114.8406 267° West 448 516 43,000  Level Salt Lake Center
07:16PM 38.1556 -115.0000 267° West 446 513 43,000  Level Salt Lake Center
07:17PM 38.1486 -115.1586 267° West 445 512 43,000  Level Salt Lake Center
07:18PM 38.1411 -115.3183 266° West 446 513 43,000  Level Salt Lake Center
07:19PM 38.1342 -115.4603 267° West 444 511 43,000  Level Salt Lake Center
07:20PM 38.1258 -115.6469 266° West 442 509 43,000  Level Salt Lake Center
07:21PM 38.1178 -115.8042 267° West 446 513 43,000  Level Salt Lake Center
07:22PM 38.1103 -115.9606 266° West 445 512 43,000  Level Salt Lake Center
07:24PM 38.1022 -116.1167 266° West 443 510 43,000  Level Salt Lake Center
07:25PM 38.0933 -116.2742 266° West 446 513 43,000  Level Salt Lake Center
07:26PM 38.0847 -116.4308 266° West 445 512 43,000  Level Salt Lake Center
07:27PM 38.0761 -116.5878 266° West 445 512 43,000  Level Salt Lake Center
07:28PM 38.0653 -116.7772 266° West 447 514 43,000  Level Salt Lake Center
07:29PM 38.0564 -116.9358 265° West 448 516 43,000  Level Salt Lake Center
07:30PM 38.0464 -117.0939 265° West 445 512 43,000  Level Salt Lake Center
07:31PM 38.0356 -117.2494 266° West 430 495 43,000  Level Salt Lake Center
07:32PM 38.0269 -117.3983 266° West 420 483 43,000  Level Salt Lake Center
07:33PM 38.0206 -117.5144 266° West 425 489 43,000  Level Oakland Center
07:34PM 38.0122 -117.6572 265° West 420 483 43,000  Level Oakland Center
07:35PM 38.0017 -117.8028 263° West 420 483 43,000  Level Oakland Center
07:36PM 37.9867 -117.9508 262° West 425 489 43,000  Level Oakland Center
07:37PM 37.9717 -118.0939 264° West 425 489 43,000  Level Oakland Center
07:38PM 37.9603 -118.2314 262° West 413 475 43,000  Level Oakland Center
07:39PM 37.9447 -118.3742 251° West 408 470 43,000  Level Oakland Center
07:40PM 37.9061 -118.5122 214° Southwest 408 470 43,000 -248 Level Oakland Center
07:41PM 37.8139 -118.5917 212° Southwest 390 449 42,500 -950 Descending Oakland Center
07:42PM 37.7172 -118.6683 233° Southwest 390 449 41,100 -1,462 Descending Oakland Center
07:43PM 37.6525 -118.7778 260° West 397 457 39,600 -1,339 Descending Oakland Center
07:44PM 37.6361 -118.8989 270° West 362 417 38,400 -800 Descending Oakland Center
07:45PM 37.6364 -119.0353 270° West 367 422 38,000 -202 Descending Oakland Center
07:46PM 37.6367 -119.1875 270° West 420 483 38,000  Level Oakland Center
07:47PM 37.6367 -119.3422 270° West 418 481 38,000  Level Oakland Center
07:48PM 37.6367 -119.4811 269° West 404 465 38,000  Level Oakland Center
07:49PM 37.6339 -119.6178 271° West 404 465 38,000 -843 Level Oakland Center
07:50PM 37.6356 -119.7619 270° West 404 465 36,300 -1,765 Descending Oakland Center
07:51PM 37.6350 -119.9008 268° West 404 465 34,500 -1,765 Descending Oakland Center
07:52PM 37.6319 -120.0400 269° West 404 465 32,800 -1,750 Descending Oakland Center
07:53PM 37.6308 -120.1867 270° West 404 465 31,000 -1,785 Descending Oakland Center
07:54PM 37.6297 -120.3361 270° West 417 480 29,200 -1,500 Descending Oakland Center
07:55PM 37.6303 -120.4594 269° West 417 480 28,000 -800 Descending Oakland Center
07:56PM 37.6289 -120.6064 270° West 412 474 27,600 -1,100 Descending Oakland Center
07:57PM 37.6292 -120.7533 267° West 418 481 25,800 -2,017 Descending Oakland Center
07:58PM 37.6231 -120.9106 245° Southwest 423 487 23,600 -2,182 Descending Oakland Center
07:59PM 37.5792 -121.0311 198° South 392 451 21,400 -1,950 Descending Oakland Center
08:00PM 37.4769 -121.0731 201° Southwest 343 395 19,700 -1,765 Descending Oakland Center
08:01PM 37.3914 -121.1147 262° West 338 389 17,900 -1,835 Descending Oakland Center
08:02PM 37.3789 -121.2219 300° West 281 323 16,000 -1,850 Descending Oakland Center
08:03PM 37.4203 -121.3133 299° West 255 293 14,200 -1,765 Descending Oakland Center
08:04PM 37.4617 -121.4078 294° West 276 318 12,500 -1,250 Descending Oakland Center
08:05PM 37.4906 -121.4892 265° West 282 325 11,700 -1,099 Descending Oakland Center
08:06PM 37.4833 -121.5833 270° West 237 273 10,100 -1,374 Descending Northern Cal TRACON
08:07PM 37.4833 -121.6667 270° West 237 273 8,700 -1,050 Descending Northern Cal TRACON
08:08PM 37.4833 -121.7500 270° West 227 261 8,000 -350 Descending Northern Cal TRACON
08:09PM 37.4833 -121.8333 253° West 222 255 8,000  Level Northern Cal TRACON
08:10PM 37.4667 -121.9000 288° West 190 219 8,000 -476 Level Northern Cal TRACON
08:11PM 37.4833 -121.9667 293° West 183 211 7,000 -942 Descending Northern Cal TRACON
08:12PM 37.5000 -122.0167 302° West 186 214 6,100 -991 Descending Northern Cal TRACON
08:13PM 37.5333 -122.0833 293° West 185 213 5,100 -950 Descending Northern Cal TRACON
08:14PM 37.5500 -122.1333 293° West 168 193 4,200 -900 Descending Northern Cal TRACON
08:15PM 37.5667 -122.1833 288° West 163 188 3,300 -843 Descending Northern Cal TRACON
08:16PM 37.5833 -122.2500 270° West 167 192 2,500 -744 Descending Northern Cal TRACON
08:17PM 37.5833 -122.2833 302° West 122 140 1,800 -789 Descending Northern Cal TRACON
08:18PM 37.6000 -122.3167 302° West 127 146 1,000 -889 Descending Northern Cal TRACON